DateTimeUTC,F1_A11,F1_S11,BsB_S11,BsG_S11,BsR_S11,BbsB_S11,BbsG_S11,BbsR_S11,BaB_A11,BaG_A11,BaR_A11,Tu_S11,T_S11,Uu_S11,U_S11,P_S11,T1_A11
2021-08-23T18:00:00Z,00000200,20000000,,,,,,,0000.01,-000.26,-000.09,19.8,26.5,08.8,05.9,0676.8,31.1
2021-08-23T18:01:00Z,00000200,20000000,,,,,,,-000.04,-000.24,-000.07,19.8,26.5,08.8,05.9,0676.8,31.1
2021-08-23T18:02:00Z,00000200,20000000,,,,,,,-000.20,0000.40,0000.39,19.8,26.5,08.8,05.9,0676.8,31.1
2021-08-23T18:03:00Z,00000200,60000000,,,,,,,0001.25,0000.89,0000.59,19.8,26.5,08.8,05.9,0676.8,31.1
2021-08-23T18:04:00Z,00000200,40000000,0006.83,0005.09,0003.53,0000.68,0000.60,0000.81,0001.19,0001.05,0000.76,19.9,26.4,08.9,06.0,0677.8,31.1
2021-08-23T18:05:00Z,00000200,00000000,0005.57,0004.63,0003.24,0000.79,0000.51,0000.59,0001.14,0001.25,0001.09,19.9,26.3,08.9,06.0,0677.8,31.1
2021-08-23T18:06:00Z,00000200,00000000,0005.84,0004.03,0002.53,0001.67,0000.55,0000.23,0001.03,0000.93,0001.19,19.9,26.3,08.9,06.0,0677.8,31.1
2021-08-23T18:07:00Z,00000200,00000000,0006.16,0004.77,0002.90,0001.40,0000.58,0000.31,0001.23,0001.29,0000.70,19.9,26.3,08.9,06.1,0677.9,31.1
2021-08-23T18:08:00Z,00000200,00000000,0005.51,0004.20,0003.43,0000.97,0000.56,0000.50,0001.21,0001.25,0000.79,19.9,26.3,09.0,06.1,0677.9,31.1
2021-08-23T18:09:00Z,00000200,00000000,0006.11,0005.00,0003.23,0001.56,0000.69,0000.27,0001.48,0001.10,0000.92,19.9,26.3,09.1,06.2,0677.9,31.1
2021-08-23T18:10:00Z,00000200,00000000,0006.06,0004.74,0003.45,0000.55,0000.64,0000.57,0000.98,0000.68,0001.11,19.9,26.3,09.0,06.1,0677.9,31.1
2021-08-23T18:11:00Z,00000200,00000000,0006.49,0004.98,0003.40,0001.18,0000.98,0000.62,0001.26,0001.37,0000.71,19.9,26.3,09.0,06.1,0677.9,31.1
2021-08-23T18:12:00Z,00000200,00000000,0005.46,0004.84,0003.17,0001.43,0000.70,0000.57,0001.26,0001.07,0001.16,19.9,26.3,08.9,06.1,0677.9,31.1
2021-08-23T18:13:00Z,00000200,00000000,0005.95,0004.93,0003.49,0000.96,0000.45,0000.72,0001.30,0001.34,0000.82,19.9,26.3,08.9,06.1,0677.9,31.1
2021-08-23T18:14:00Z,00000200,00000000,0005.77,0005.31,0003.02,0001.39,0000.34,0000.35,0001.01,0001.22,0000.93,19.9,26.3,08.9,06.1,0677.9,31.1
2021-08-23T18:15:00Z,00000200,00000000,0006.39,0004.93,0003.29,0000.72,0000.80,0000.56,0001.46,0001.00,0000.94,19.9,26.3,08.8,06.0,0677.9,31.1
2021-08-23T18:16:00Z,00000200,00010000,0005.93,0004.35,0002.89,0001.06,0000.45,0000.36,0000.98,0001.27,0000.58,19.9,26.3,08.8,06.0,0677.9,31.1
2021-08-23T18:17:00Z,00000200,00000000,0005.88,0004.60,0003.04,0001.21,0000.49,0000.25,0001.18,0000.89,0001.18,19.9,26.3,08.9,06.1,0677.9,31.1
2021-08-23T18:18:00Z,00000200,00000000,0006.36,0004.33,0002.98,0000.83,0000.45,0000.78,0001.23,0001.12,0000.94,19.9,26.3,08.9,06.0,0677.9,31.1
2021-08-23T18:19:00Z,00000200,00000000,0005.46,0004.65,0002.76,0000.66,0000.37,0000.18,0001.01,0001.21,0000.67,19.9,26.3,08.8,06.0,0677.9,31.1
2021-08-23T18:20:00Z,00000200,00000000,0005.39,0003.98,0002.95,0001.40,0000.84,0000.72,0001.16,0000.75,0001.05,19.9,26.3,08.8,06.0,0677.9,31.1
2021-08-23T18:21:00Z,00000200,00000000,0005.02,0004.54,0002.85,0001.54,0000.36,0000.40,0001.14,0000.94,0000.55,19.9,26.3,08.7,06.0,0677.9,31.1
2021-08-23T18:22:00Z,00000200,00000000,0005.14,0004.06,0002.73,0001.15,0000.82,0000.18,0001.11,0000.99,0001.23,19.9,26.3,08.7,05.9,0677.9,31.1
2021-08-23T18:23:00Z,00000200,00000000,0004.79,0003.77,0002.52,0000.57,0000.52,0000.72,0000.83,0000.94,0000.53,19.9,26.3,08.9,06.1,0677.9,31.1
2021-08-23T18:24:00Z,00000200,00000000,0003.75,0003.41,0002.41,0001.26,0000.39,0000.54,0001.26,0001.47,0000.94,19.9,26.3,08.8,06.0,0677.9,31.1
2021-08-23T18:25:00Z,00000200,00000000,0005.74,0003.75,0002.88,0001.26,0000.68,0000.64,0000.96,0000.80,0000.66,19.9,26.3,08.8,06.0,0677.9,31.1
2021-08-23T18:26:00Z,00000200,00000000,0005.36,0003.88,0002.38,0000.25,0000.44,0000.23,0001.05,0000.97,0000.74,19.9,26.3,08.8,06.0,0677.9,31.1
2021-08-23T18:27:00Z,00000200,00000000,0005.63,0004.12,0003.09,0001.31,0000.50,0000.57,0001.25,0001.00,0000.91,19.9,26.3,08.8,06.0,0678.0,31.0
2021-08-23T18:28:00Z,00000200,00000000,0004.92,0004.04,0002.56,0001.12,0000.60,0000.34,0000.94,0000.95,0000.79,19.9,26.2,08.8,06.0,0678.0,31.1
2021-08-23T18:29:00Z,00000200,00000000,0005.29,0003.81,0002.38,0000.93,0000.36,0000.33,0000.73,0000.60,0000.36,19.9,26.2,08.9,06.0,0677.9,31.1
2021-08-23T18:30:00Z,00000200,00000000,0004.95,0003.48,0002.49,0001.00,0000.63,0000.47,0000.98,0001.03,0001.07,19.9,26.2,08.7,05.9,0678.0,31.1
2021-08-23T18:31:00Z,00000200,00000000,0004.48,0003.74,0002.77,0000.91,0000.62,0000.35,0001.04,0000.95,0000.81,19.9,26.2,08.8,06.0,0678.0,31.1
2021-08-23T18:32:00Z,00000200,00000000,0004.88,0004.09,0002.76,0000.42,0000.57,0000.52,0001.18,0001.12,0000.66,19.9,26.2,08.8,06.0,0678.0,31.1
2021-08-23T18:33:00Z,00000200,00000000,0005.59,0004.06,0002.56,0001.23,0000.26,0000.44,0000.94,0000.90,0001.21,19.9,26.3,08.7,05.9,0678.0,31.1
2021-08-23T18:34:00Z,00000200,00000000,0004.58,0004.44,0002.63,0000.48,0000.67,0000.21,0000.95,0000.88,0000.32,19.9,26.2,08.7,05.9,0678.0,31.1
2021-08-23T18:35:00Z,00000200,00000000,0004.51,0003.83,0002.52,0000.93,0000.52,0000.37,0001.04,0001.17,0000.56,19.9,26.2,08.6,05.8,0678.0,31.0
2021-08-23T18:36:00Z,00000200,00000000,0004.98,0003.74,0002.49,0000.86,0000.61,0000.34,0001.05,0000.28,0001.07,19.9,26.2,08.6,05.9,0678.0,31.0
2021-08-23T18:37:00Z,00000200,00000000,0005.00,0004.12,0002.61,0000.76,0000.51,0000.49,0000.71,0001.00,0000.69,19.9,26.2,08.7,05.9,0678.0,31.1
2021-08-23T18:38:00Z,00000200,00000000,0004.29,0003.33,0002.23,0000.87,0000.88,0000.17,0001.12,0001.03,0000.55,19.9,26.2,08.7,05.9,0678.0,31.1
2021-08-23T18:39:00Z,00000200,00000000,0003.92,0003.33,0002.30,0001.00,0000.20,0000.08,0000.59,0000.69,0000.49,19.9,26.2,08.6,05.9,0678.0,31.1
2021-08-23T18:40:00Z,00000200,00000000,0004.45,0003.44,0002.11,0000.73,0000.39,0000.41,0001.08,0001.08,0000.76,19.9,26.2,08.6,05.9,0678.0,31.1
2021-08-23T18:41:00Z,00000200,00000000,0004.96,0003.69,0002.05,0000.98,0000.64,0000.06,0000.99,0000.86,0000.78,19.9,26.2,08.7,05.9,0678.0,31.1
2021-08-23T18:42:00Z,00000200,00000000,0004.26,0003.82,0002.60,0000.87,0000.38,0000.38,0000.89,0000.85,0000.71,19.9,26.2,08.7,06.0,0678.1,31.1
2021-08-23T18:43:00Z,00000200,00000000,0005.04,0003.75,0002.54,0000.81,0000.60,0000.80,0001.34,0001.18,0000.84,19.9,26.2,08.7,05.9,0678.1,31.1
2021-08-23T18:44:00Z,00000200,00000000,0005.57,0004.07,0002.75,0000.91,0000.40,0000.15,0000.87,0000.63,0000.97,19.9,26.2,08.7,05.9,0678.1,31.1
2021-08-23T18:45:00Z,00000200,00000000,0004.08,0004.16,0002.23,0000.53,0000.50,0000.31,0001.10,0001.32,0000.87,19.9,26.2,08.7,05.9,0678.1,31.1
2021-08-23T18:46:00Z,00000200,00000000,0005.61,0004.18,0002.60,0001.16,0000.65,0000.19,0001.17,0000.85,0000.85,19.9,26.2,08.7,05.9,0678.1,31.1
2021-08-23T18:47:00Z,00000200,00000000,0005.25,0003.61,0002.60,0001.28,0000.38,0000.51,0001.10,0000.72,0000.79,19.9,26.2,08.8,06.0,0678.1,31.1
2021-08-23T18:48:00Z,00000200,00000000,0004.74,0004.42,0002.64,0001.07,0000.42,0000.70,0000.98,0001.06,0000.40,19.9,26.2,08.8,06.0,0678.1,31.1
2021-08-23T18:49:00Z,00000200,00000000,0004.79,0003.90,0002.56,0000.72,0000.31,-000.10,0000.90,0001.15,0000.78,19.9,26.2,08.7,05.9,0678.1,31.1
2021-08-23T18:50:00Z,00000200,00000000,0004.88,0004.10,0002.43,0000.96,0000.28,0000.46,0001.07,0000.78,0001.21,19.9,26.2,08.8,06.0,0678.1,31.0
2021-08-23T18:51:00Z,00000200,00000000,0005.30,0004.15,0002.98,-000.06,0000.59,0000.57,0001.12,0001.06,0000.57,19.9,26.2,08.6,05.9,0678.1,31.1
2021-08-23T18:52:00Z,00000200,00000000,0003.95,0003.81,0002.41,0000.87,0000.63,0000.09,0000.97,0001.16,0000.81,19.9,26.2,08.7,05.9,0678.1,31.1
2021-08-23T18:53:00Z,00000200,00000000,0004.94,0003.65,0002.40,0000.96,0000.46,0000.64,0000.96,0000.65,0000.63,19.9,26.2,08.7,06.0,0678.1,31.0
2021-08-23T18:54:00Z,00000200,00000000,0004.29,0003.83,0002.52,0000.94,0000.68,0000.49,0001.05,0001.22,0000.85,19.8,26.2,08.7,05.9,0678.1,31.0
2021-08-23T18:55:00Z,00000200,00000000,0005.61,0003.94,0002.42,0000.93,0000.63,0000.63,0001.06,0000.78,0000.50,19.8,26.2,08.8,06.0,0678.1,31.1
2021-08-23T18:56:00Z,00000200,00000000,0005.43,0004.00,0002.60,0001.17,0000.58,0000.42,0000.96,0001.16,0000.98,19.8,26.2,08.7,06.0,0678.1,31.1
2021-08-23T18:57:00Z,00000200,40000000,,,,,,,0000.41,0000.47,0000.23,19.9,26.2,09.2,06.3,0678.0,31.1
2021-08-23T18:58:00Z,00000200,60000000,,,,,,,-000.18,-000.42,0000.18,19.6,26.3,08.9,05.9,0677.1,31.1
2021-08-23T18:59:00Z,00000200,20000000,,,,,,,0000.14,0000.26,0000.12,19.6,26.4,08.8,05.9,0677.1,31.1
